Time,TemperatureF,DewpointF,PressureIn,WindDirection,WindDirectionDegrees,WindSpeedMPH,WindSpeedGustMPH,Humidity,HourlyPrecipIn,Conditions,Clouds,dailyrainin,SoftwareType,DateUTC
2013-01-24 00:05:00,14.2,11.6,30.05,SSW,207,1.0,1.0,89,0.00,,,0.00,Wunderground v.1.15,2013-01-24 05:05:00,
2013-01-24 00:10:00,14.3,11.7,30.05,SSW,207,0.0,0.0,89,0.00,,,0.00,Wunderground v.1.15,2013-01-24 05:10:00,
2013-01-24 00:15:00,14.2,11.6,30.05,SSW,207,0.0,0.0,89,0.00,,,0.00,Wunderground v.1.15,2013-01-24 05:15:00,
2013-01-24 02:20:00,12.5,10.1,30.07,SSW,205,0.0,2.0,90,0.00,,,0.00,Wunderground v.1.15,2013-01-24 07:20:00,
2013-01-24 02:25:00,12.2,9.6,30.08,SSW,205,0.0,2.0,89,0.00,,,0.00,Wunderground v.1.15,2013-01-24 07:25:00,
2013-01-24 02:30:00,12.0,9.4,30.08,SSW,205,0.0,2.0,89,0.00,,,0.00,Wunderground v.1.15,2013-01-24 07:30:00,
2013-01-24 02:40:00,11.7,9.3,30.09,SSW,205,0.0,2.0,90,0.00,,,0.00,Wunderground v.1.15,2013-01-24 07:40:00,
2013-01-24 02:45:00,11.7,9.3,30.09,SSW,205,0.0,2.0,90,0.00,,,0.00,Wunderground v.1.15,2013-01-24 07:45:00,
2013-01-24 02:50:00,11.7,9.3,30.09,SSW,205,0.0,2.0,90,0.00,,,0.00,Wunderground v.1.15,2013-01-24 07:50:00,
2013-01-24 02:55:00,11.7,9.3,30.09,SSW,205,0.0,2.0,90,0.00,,,0.00,Wunderground v.1.15,2013-01-24 07:55:00,
2013-01-24 03:00:00,11.6,9.2,30.10,SSW,205,0.0,0.0,90,0.00,,,0.00,Wunderground v.1.15,2013-01-24 08:00:00,
2013-01-24 03:10:00,11.6,9.2,30.10,SSW,205,0.0,0.0,90,0.00,,,0.00,Wunderground v.1.15,2013-01-24 08:10:00,
2013-01-24 03:15:00,11.6,9.2,30.10,SSW,205,0.0,0.0,90,0.00,,,0.00,Wunderground v.1.15,2013-01-24 08:15:00,
2013-01-24 03:20:00,11.8,9.7,30.11,SSW,207,0.0,0.0,91,0.00,,,0.00,Wunderground v.1.15,2013-01-24 08:20:00,
2013-01-24 03:30:00,11.7,9.3,30.11,SSW,207,0.0,0.0,90,0.00,,,0.00,Wunderground v.1.15,2013-01-24 08:30:00,
2013-01-24 03:35:00,11.6,9.2,30.11,SSW,207,0.0,0.0,90,0.00,,,0.00,Wunderground v.1.15,2013-01-24 08:35:00,
2013-01-24 03:40:00,11.4,9.0,30.11,SSW,207,0.0,0.0,90,0.00,,,0.00,Wunderground v.1.15,2013-01-24 08:40:00,
2013-01-24 03:45:00,11.3,8.9,30.12,SSW,207,0.0,0.0,90,0.00,,,0.00,Wunderground v.1.15,2013-01-24 08:45:00,
2013-01-24 03:50:00,11.1,8.7,30.12,SSW,207,0.0,0.0,90,0.00,,,0.00,Wunderground v.1.15,2013-01-24 08:50:00,
2013-01-24 03:55:00,11.1,8.7,30.13,SW,226,0.0,0.0,90,0.00,,,0.00,Wunderground v.1.15,2013-01-24 08:55:00,
2013-01-24 04:00:00,11.0,8.9,30.13,SW,219,0.0,0.0,91,0.00,,,0.00,Wunderground v.1.15,2013-01-24 09:00:00,
2013-01-24 04:10:00,10.9,8.8,30.14,SW,231,0.0,0.0,91,0.00,,,0.00,Wunderground v.1.15,2013-01-24 09:10:00,
2013-01-24 04:15:00,11.0,8.9,30.14,SW,229,0.0,0.0,91,0.00,,,0.00,Wunderground v.1.15,2013-01-24 09:15:00,
2013-01-24 04:20:00,10.9,8.8,30.14,SW,229,0.0,0.0,91,0.00,,,0.00,Wunderground v.1.15,2013-01-24 09:20:00,
2013-01-24 04:25:00,10.9,8.8,30.14,West,269,0.0,0.0,91,0.00,,,0.00,Wunderground v.1.15,2013-01-24 09:25:00,
2013-01-24 04:35:00,11.0,8.9,30.15,ENE,68,0.0,1.0,91,0.00,,,0.00,Wunderground v.1.15,2013-01-24 09:35:00,
2013-01-24 04:40:00,11.2,9.1,30.15,ENE,68,0.0,0.0,91,0.00,,,0.00,Wunderground v.1.15,2013-01-24 09:40:00,
2013-01-24 04:50:00,11.8,9.7,30.16,SW,236,0.0,0.0,91,0.00,,,0.00,Wunderground v.1.15,2013-01-24 09:50:00,
2013-01-24 04:55:00,11.9,9.8,30.17,NW,314,1.0,1.0,91,0.00,,,0.00,Wunderground v.1.15,2013-01-24 09:55:00,
2013-01-24 05:00:00,12.0,9.9,30.17,SE,127,0.0,1.0,91,0.00,,,0.00,Wunderground v.1.15,2013-01-24 10:00:00,
2013-01-24 05:10:00,11.9,9.5,30.17,East,91,0.0,2.0,90,0.00,,,0.00,Wunderground v.1.15,2013-01-24 10:10:00,
2013-01-24 05:15:00,11.9,9.5,30.18,SW,229,0.0,2.0,90,0.00,,,0.00,Wunderground v.1.15,2013-01-24 10:15:00,
2013-01-24 05:20:00,12.0,9.9,30.18,North,11,1.0,1.0,91,0.00,,,0.00,Wunderground v.1.15,2013-01-24 10:20:00,
2013-01-24 05:25:00,12.0,9.6,30.19,ENE,64,1.0,1.0,90,0.00,,,0.00,Wunderground v.1.15,2013-01-24 10:25:00,
2013-01-24 05:30:00,11.9,9.5,30.19,NW,319,0.0,0.0,90,0.00,,,0.00,Wunderground v.1.15,2013-01-24 10:30:00,
2013-01-24 05:35:00,12.0,9.6,30.20,NW,312,1.0,1.0,90,0.00,,,0.00,Wunderground v.1.15,2013-01-24 10:35:00,
2013-01-24 05:40:00,12.0,9.6,30.20,SW,219,1.0,1.0,90,0.00,,,0.00,Wunderground v.1.15,2013-01-24 10:40:00,
2013-01-24 05:50:00,11.9,9.5,30.21,West,269,0.0,1.0,90,0.00,,,0.00,Wunderground v.1.15,2013-01-24 10:50:00,
2013-01-24 06:00:00,12.0,9.4,30.22,NNE,21,1.0,1.0,89,0.00,,,0.00,Wunderground v.1.15,2013-01-24 11:00:00,
2013-01-24 06:10:00,12.2,9.6,30.23,WNW,284,1.0,1.0,89,0.00,,,0.00,Wunderground v.1.15,2013-01-24 11:10:00,
2013-01-24 06:20:00,12.3,9.7,30.24,South,188,1.0,1.0,89,0.00,,,0.00,Wunderground v.1.15,2013-01-24 11:20:00,
2013-01-24 06:25:00,12.3,9.7,30.24,South,181,1.0,1.0,89,0.00,,,0.00,Wunderground v.1.15,2013-01-24 11:25:00,
2013-01-24 06:30:00,12.4,9.8,30.24,SSE,148,1.0,1.0,89,0.00,,,0.00,Wunderground v.1.15,2013-01-24 11:30:00,
2013-01-24 06:35:00,12.3,9.7,30.25,SSE,153,1.0,1.0,89,0.00,,,0.00,Wunderground v.1.15,2013-01-24 11:35:00,
2013-01-24 06:40:00,12.2,9.6,30.26,SSE,163,1.0,1.0,89,0.00,,,0.00,Wunderground v.1.15,2013-01-24 11:40:00,
2013-01-24 06:50:00,12.2,9.6,30.26,SSW,206,1.0,1.0,89,0.00,,,0.00,Wunderground v.1.15,2013-01-24 11:50:00,
2013-01-24 06:55:00,12.2,9.6,30.27,South,183,1.0,2.0,89,0.00,,,0.00,Wunderground v.1.15,2013-01-24 11:55:00,
2013-01-24 07:00:00,12.2,9.6,30.28,SSE,164,1.0,1.0,89,0.00,,,0.00,Wunderground v.1.15,2013-01-24 12:00:00,
2013-01-24 07:10:00,12.1,9.5,30.28,SE,127,0.0,0.0,89,0.00,,,0.00,Wunderground v.1.15,2013-01-24 12:10:00,
2013-01-24 07:15:00,12.0,9.4,30.29,SE,134,0.0,0.0,89,0.00,,,0.00,Wunderground v.1.15,2013-01-24 12:15:00,
2013-01-24 07:20:00,12.0,9.4,30.29,West,274,0.0,1.0,89,0.00,,,0.00,Wunderground v.1.15,2013-01-24 12:20:00,
2013-01-24 07:25:00,12.0,9.4,30.29,West,281,1.0,1.0,89,0.00,,,0.00,Wunderground v.1.15,2013-01-24 12:25:00,
2013-01-24 07:35:00,11.9,9.3,30.30,SE,139,1.0,3.0,89,0.00,,,0.00,Wunderground v.1.15,2013-01-24 12:35:00,
2013-01-24 07:40:00,12.1,9.5,30.31,East,94,1.0,2.0,89,0.00,,,0.00,Wunderground v.1.15,2013-01-24 12:40:00,
2013-01-24 07:45:00,12.1,9.2,30.31,SSW,207,1.0,2.0,88,0.00,,,0.00,Wunderground v.1.15,2013-01-24 12:45:00,
2013-01-24 07:50:00,12.1,9.2,30.32,SW,236,1.0,1.0,88,0.00,,,0.00,Wunderground v.1.15,2013-01-24 12:50:00,
2013-01-24 07:55:00,12.1,9.2,30.32,North,9,1.0,1.0,88,0.00,,,0.00,Wunderground v.1.15,2013-01-24 12:55:00,
2013-01-24 08:00:00,12.2,9.3,30.33,NE,42,1.0,1.0,88,0.00,,,0.00,Wunderground v.1.15,2013-01-24 13:00:00,
2013-01-24 08:10:00,12.1,9.0,30.33,ESE,103,1.0,1.0,87,0.00,,,0.00,Wunderground v.1.15,2013-01-24 13:10:00,
2013-01-24 08:15:00,12.0,8.9,30.34,SSW,192,1.0,1.0,87,0.00,,,0.00,Wunderground v.1.15,2013-01-24 13:15:00,
2013-01-24 08:20:00,11.9,8.8,30.34,SSW,208,1.0,1.0,87,0.00,,,0.00,Wunderground v.1.15,2013-01-24 13:20:00,
2013-01-24 08:25:00,11.8,8.7,30.34,South,188,0.0,1.0,87,0.00,,,0.00,Wunderground v.1.15,2013-01-24 13:25:00,
2013-01-24 08:30:00,11.9,8.8,30.35,SW,217,1.0,4.0,87,0.00,,,0.00,Wunderground v.1.15,2013-01-24 13:30:00,
2013-01-24 08:40:00,12.2,8.8,30.35,SSW,193,2.0,2.0,86,0.00,,,0.00,Wunderground v.1.15,2013-01-24 13:40:00,
2013-01-24 08:45:00,12.5,9.1,30.36,SW,225,2.0,2.0,86,0.00,,,0.00,Wunderground v.1.15,2013-01-24 13:45:00,
2013-01-24 08:50:00,12.7,9.0,30.36,SW,236,2.0,2.0,85,0.00,,,0.00,Wunderground v.1.15,2013-01-24 13:50:00,
2013-01-24 08:55:00,12.9,9.0,30.36,South,191,2.0,2.0,84,0.00,,,0.00,Wunderground v.1.15,2013-01-24 13:55:00,
2013-01-24 09:00:00,13.1,9.2,30.37,WSW,245,2.0,3.0,84,0.00,,,0.00,Wunderground v.1.15,2013-01-24 14:00:00,
2013-01-24 11:05:00,18.4,12.4,30.46,SE,134,3.0,6.0,77,0.00,,,0.00,Wunderground v.1.15,2013-01-24 16:05:00,
2013-01-24 11:10:00,18.6,12.9,30.46,West,276,3.0,6.0,78,0.00,,,0.00,Wunderground v.1.15,2013-01-24 16:10:00,
2013-01-24 11:15:00,18.5,12.8,30.47,NE,34,4.0,8.0,78,0.00,,,0.00,Wunderground v.1.15,2013-01-24 16:15:00,
2013-01-24 11:25:00,18.9,13.2,30.47,West,262,3.0,6.0,78,0.00,,,0.00,Wunderground v.1.15,2013-01-24 16:25:00,
2013-01-24 11:30:00,19.2,13.5,30.47,NE,56,3.0,3.0,78,0.00,,,0.00,Wunderground v.1.15,2013-01-24 16:30:00,
2013-01-24 11:35:00,19.4,13.7,30.48,WNW,282,3.0,6.0,78,0.00,,,0.00,Wunderground v.1.15,2013-01-24 16:35:00,
2013-01-24 11:45:00,19.8,13.8,30.48,West,270,3.0,6.0,77,0.00,,,0.00,Wunderground v.1.15,2013-01-24 16:45:00,
2013-01-24 11:50:00,19.8,13.5,30.48,NW,311,3.0,3.0,76,0.00,,,0.00,Wunderground v.1.15,2013-01-24 16:50:00,
2013-01-24 11:55:00,20.5,14.1,30.48,North,5,2.0,7.0,76,0.00,,,0.00,Wunderground v.1.15,2013-01-24 16:55:00,
2013-01-24 12:00:00,20.3,13.3,30.49,NNE,19,3.0,3.0,74,0.00,,,0.00,Wunderground v.1.15,2013-01-24 17:00:00,
2013-01-24 12:10:00,20.1,13.1,30.48,NE,49,4.0,4.0,74,0.00,,,0.00,Wunderground v.1.15,2013-01-24 17:10:00,
2013-01-24 12:20:00,20.0,13.3,30.48,South,172,5.0,5.0,75,0.00,,,0.00,Wunderground v.1.15,2013-01-24 17:20:00,
2013-01-24 12:25:00,20.7,14.0,30.48,NNE,21,5.0,10.0,75,0.00,,,0.00,Wunderground v.1.15,2013-01-24 17:25:00,
2013-01-24 12:30:00,20.8,13.8,30.48,ENE,61,6.0,6.0,74,0.00,,,0.00,Wunderground v.1.15,2013-01-24 17:30:00,
2013-01-24 12:35:00,20.5,12.9,30.48,North,11,5.0,11.0,72,0.00,,,0.00,Wunderground v.1.15,2013-01-24 17:35:00,
2013-01-24 12:40:00,20.4,12.5,30.47,NNE,16,5.0,9.0,71,0.00,,,0.00,Wunderground v.1.15,2013-01-24 17:40:00,
2013-01-24 12:45:00,20.8,11.9,30.47,NNE,13,6.0,9.0,68,0.00,,,0.00,Wunderground v.1.15,2013-01-24 17:45:00,
2013-01-24 12:55:00,21.6,10.6,30.47,NNW,340,6.0,9.0,62,0.00,,,0.00,Wunderground v.1.15,2013-01-24 17:55:00,
2013-01-24 13:00:00,21.9,10.9,30.47,North,11,6.0,6.0,62,0.00,,,0.00,Wunderground v.1.15,2013-01-24 18:00:00,
2013-01-24 13:10:00,21.4,11.8,30.47,NNE,33,3.0,5.0,66,0.00,,,0.00,Wunderground v.1.15,2013-01-24 18:10:00,
2013-01-24 13:15:00,21.3,12.7,30.47,NW,318,4.0,5.0,69,0.00,,,0.00,Wunderground v.1.15,2013-01-24 18:15:00,
2013-01-24 13:20:00,21.1,11.8,30.47,NE,50,4.0,5.0,67,0.00,,,0.00,Wunderground v.1.15,2013-01-24 18:20:00,
2013-01-24 13:30:00,21.5,12.2,30.46,ENE,61,4.0,7.0,67,0.00,,,0.00,Wunderground v.1.15,2013-01-24 18:30:00,
2013-01-24 13:35:00,21.9,9.7,30.46,North,9,3.0,9.0,59,0.00,,,0.00,Wunderground v.1.15,2013-01-24 18:35:00,
2013-01-24 13:40:00,21.5,7.8,30.46,ENE,71,5.0,5.0,55,0.00,,,0.00,Wunderground v.1.15,2013-01-24 18:40:00,
2013-01-24 13:45:00,21.5,6.1,30.46,NNE,30,6.0,6.0,51,0.00,,,0.00,Wunderground v.1.15,2013-01-24 18:45:00,
2013-01-24 13:50:00,21.4,6.5,30.46,NNE,28,6.0,7.0,52,0.00,,,0.00,Wunderground v.1.15,2013-01-24 18:50:00,
2013-01-24 14:00:00,22.2,6.4,30.47,NNW,343,5.0,6.0,50,0.00,,,0.00,Wunderground v.1.15,2013-01-24 19:00:00,
2013-01-24 14:10:00,24.0,7.6,30.47,NW,321,3.0,5.0,49,0.00,,,0.00,Wunderground v.1.15,2013-01-24 19:10:00,
2013-01-24 14:15:00,23.9,6.1,30.47,WNW,301,4.0,5.0,46,0.00,,,0.00,Wunderground v.1.15,2013-01-24 19:15:00,
2013-01-24 14:20:00,23.9,5.1,30.47,NNE,23,4.0,4.0,44,0.00,,,0.00,Wunderground v.1.15,2013-01-24 19:20:00,
2013-01-24 14:25:00,23.8,5.5,30.47,SSW,211,4.0,4.0,45,0.00,,,0.00,Wunderground v.1.15,2013-01-24 19:25:00,
2013-01-24 14:35:00,23.9,6.1,30.47,North,358,5.0,6.0,46,0.00,,,0.00,Wunderground v.1.15,2013-01-24 19:35:00,
2013-01-24 14:40:00,22.9,4.7,30.47,North,353,5.0,5.0,45,0.00,,,0.00,Wunderground v.1.15,2013-01-24 19:40:00,
2013-01-24 14:45:00,23.1,5.4,30.48,NNE,31,4.0,5.0,46,0.00,,,0.00,Wunderground v.1.15,2013-01-24 19:45:00,
2013-01-24 14:50:00,23.3,5.5,30.47,South,181,4.0,4.0,46,0.00,,,0.00,Wunderground v.1.15,2013-01-24 19:50:00,
2013-01-24 14:55:00,23.9,6.6,30.47,NNE,30,4.0,9.0,47,0.00,,,0.00,Wunderground v.1.15,2013-01-24 19:55:00,
2013-01-24 15:10:00,23.2,6.8,30.49,WNW,290,6.0,6.0,49,0.00,,,0.00,Wunderground v.1.15,2013-01-24 20:10:00,
2013-01-24 15:15:00,23.4,6.1,30.48,WNW,301,4.0,6.0,47,0.00,,,0.00,Wunderground v.1.15,2013-01-24 20:15:00,
2013-01-24 15:20:00,23.6,5.8,30.48,ESE,113,3.0,3.0,46,0.00,,,0.00,Wunderground v.1.15,2013-01-24 20:20:00,
2013-01-24 15:25:00,23.9,5.6,30.48,NE,49,3.0,4.0,45,0.00,,,0.00,Wunderground v.1.15,2013-01-24 20:25:00,
2013-01-24 15:35:00,23.3,6.9,30.49,NE,34,6.0,8.0,49,0.00,,,0.00,Wunderground v.1.15,2013-01-24 20:35:00,
2013-01-24 15:45:00,21.5,6.1,30.49,NNE,29,6.0,7.0,51,0.00,,,0.00,Wunderground v.1.15,2013-01-24 20:45:00,
2013-01-24 15:50:00,21.0,6.1,30.49,NNE,27,6.0,9.0,52,0.00,,,0.00,Wunderground v.1.15,2013-01-24 20:50:00,
2013-01-24 15:55:00,20.7,5.4,30.49,NNE,27,6.0,9.0,51,0.00,,,0.00,Wunderground v.1.15,2013-01-24 20:55:00,
2013-01-24 16:00:00,21.4,6.5,30.49,NNE,16,5.0,5.0,52,0.00,,,0.00,Wunderground v.1.15,2013-01-24 21:00:00,
2013-01-24 16:10:00,22.0,5.3,30.49,NE,47,4.0,4.0,48,0.00,,,0.00,Wunderground v.1.15,2013-01-24 21:10:00,
2013-01-24 16:20:00,21.5,5.3,30.49,NE,39,6.0,7.0,49,0.00,,,0.00,Wunderground v.1.15,2013-01-24 21:20:00,
2013-01-24 16:25:00,20.9,3.8,30.49,North,2,5.0,7.0,47,0.00,,,0.00,Wunderground v.1.15,2013-01-24 21:25:00,
2013-01-24 16:30:00,20.6,4.4,30.49,NNE,30,4.0,4.0,49,0.00,,,0.00,Wunderground v.1.15,2013-01-24 21:30:00,
2013-01-24 16:35:00,20.4,4.2,30.49,WNW,282,3.0,4.0,49,0.00,,,0.00,Wunderground v.1.15,2013-01-24 21:35:00,
2013-01-24 16:45:00,20.2,4.1,30.50,NE,34,2.0,5.0,49,0.00,,,0.00,Wunderground v.1.15,2013-01-24 21:45:00,
2013-01-24 16:50:00,20.1,4.8,30.50,NNE,16,4.0,4.0,51,0.00,,,0.00,Wunderground v.1.15,2013-01-24 21:50:00,
2013-01-24 16:55:00,19.8,4.6,30.50,NNE,26,5.0,5.0,51,0.00,,,0.00,Wunderground v.1.15,2013-01-24 21:55:00,
2013-01-24 17:00:00,19.6,4.4,30.50,North,350,4.0,4.0,51,0.00,,,0.00,Wunderground v.1.15,2013-01-24 22:00:00,
2013-01-24 17:10:00,19.1,4.8,30.50,North,350,3.0,4.0,53,0.00,,,0.00,Wunderground v.1.15,2013-01-24 22:10:00,
2013-01-24 17:20:00,18.8,4.5,30.50,NNE,22,2.0,2.0,53,0.00,,,0.00,Wunderground v.1.15,2013-01-24 22:20:00,
2013-01-24 17:25:00,18.5,4.2,30.51,North,9,1.0,2.0,53,0.00,,,0.00,Wunderground v.1.15,2013-01-24 22:25:00,
2013-01-24 17:30:00,18.3,4.0,30.51,NNE,25,1.0,1.0,53,0.00,,,0.00,Wunderground v.1.15,2013-01-24 22:30:00,
2013-01-24 17:35:00,18.1,4.2,30.51,NNE,25,1.0,1.0,54,0.00,,,0.00,Wunderground v.1.15,2013-01-24 22:35:00,
2013-01-24 17:40:00,17.7,4.6,30.51,NNE,25,0.0,0.0,56,0.00,,,0.00,Wunderground v.1.15,2013-01-24 22:40:00,
2013-01-24 17:45:00,17.3,5.0,30.51,ENE,74,1.0,1.0,58,0.00,,,0.00,Wunderground v.1.15,2013-01-24 22:45:00,
2013-01-24 17:50:00,17.1,4.8,30.51,NNE,18,1.0,1.0,58,0.00,,,0.00,Wunderground v.1.15,2013-01-24 22:50:00,
2013-01-24 17:55:00,16.5,5.0,30.52,North,358,1.0,2.0,60,0.00,,,0.00,Wunderground v.1.15,2013-01-24 22:55:00,
2013-01-24 18:00:00,16.2,5.1,30.52,North,5,1.0,1.0,61,0.00,,,0.00,Wunderground v.1.15,2013-01-24 23:00:00,
2013-01-24 18:10:00,15.2,5.2,30.52,NE,37,1.0,1.0,64,0.00,,,0.00,Wunderground v.1.15,2013-01-24 23:10:00,
2013-01-24 18:15:00,15.3,5.3,30.52,NNE,30,2.0,2.0,64,0.00,,,0.00,Wunderground v.1.15,2013-01-24 23:15:00,
2013-01-24 18:25:00,15.9,5.9,30.52,NE,39,3.0,4.0,64,0.00,,,0.00,Wunderground v.1.15,2013-01-24 23:25:00,
2013-01-24 18:30:00,16.0,5.6,30.52,NE,40,2.0,2.0,63,0.00,,,0.00,Wunderground v.1.15,2013-01-24 23:30:00,
2013-01-24 18:35:00,15.6,5.9,30.52,NE,37,1.0,2.0,65,0.00,,,0.00,Wunderground v.1.15,2013-01-24 23:35:00,
2013-01-24 18:40:00,15.1,5.8,30.52,NE,37,1.0,1.0,66,0.00,,,0.00,Wunderground v.1.15,2013-01-24 23:40:00,
2013-01-24 18:45:00,14.7,5.7,30.52,NNE,19,1.0,2.0,67,0.00,,,0.00,Wunderground v.1.15,2013-01-24 23:45:00,
2013-01-24 18:50:00,14.4,6.1,30.52,NNE,29,2.0,2.0,69,0.00,,,0.00,Wunderground v.1.15,2013-01-24 23:50:00,
2013-01-24 18:55:00,13.8,5.8,30.52,NNE,29,1.0,1.0,70,0.00,,,0.00,Wunderground v.1.15,2013-01-24 23:55:00,
2013-01-24 19:05:00,13.3,6.0,30.53,NNE,29,1.0,1.0,72,0.00,,,0.00,Wunderground v.1.15,2013-01-25 00:05:00,
2013-01-24 19:10:00,13.0,5.7,30.53,NNE,29,1.0,2.0,72,0.00,,,0.00,Wunderground v.1.15,2013-01-25 00:10:00,
2013-01-24 19:15:00,12.7,6.0,30.53,NNE,29,1.0,2.0,74,0.00,,,0.00,Wunderground v.1.15,2013-01-25 00:15:00,
2013-01-24 19:20:00,12.4,5.7,30.53,NNE,29,1.0,1.0,74,0.00,,,0.00,Wunderground v.1.15,2013-01-25 00:20:00,
2013-01-24 19:25:00,12.3,5.9,30.52,NNE,29,1.0,1.0,75,0.00,,,0.00,Wunderground v.1.15,2013-01-25 00:25:00,
2013-01-24 19:30:00,12.2,5.8,30.52,NNE,29,1.0,1.0,75,0.00,,,0.00,Wunderground v.1.15,2013-01-25 00:30:00,
2013-01-24 19:40:00,12.1,6.0,30.52,NNE,29,2.0,2.0,76,0.00,,,0.00,Wunderground v.1.15,2013-01-25 00:40:00,
2013-01-24 19:45:00,12.0,5.9,30.52,NNE,29,1.0,2.0,76,0.00,,,0.00,Wunderground v.1.15,2013-01-25 00:45:00,
2013-01-24 19:55:00,11.8,6.0,30.53,NNE,29,1.0,2.0,77,0.00,,,0.00,Wunderground v.1.15,2013-01-25 00:55:00,
2013-01-24 20:00:00,11.9,6.1,30.53,NNE,29,0.0,0.0,77,0.00,,,0.00,Wunderground v.1.15,2013-01-25 01:00:00,
2013-01-24 20:10:00,11.5,5.7,30.52,NNE,29,0.0,0.0,77,0.00,,,0.00,Wunderground v.1.15,2013-01-25 01:10:00,
2013-01-24 20:20:00,11.2,5.7,30.52,NNE,29,0.0,0.0,78,0.00,,,0.00,Wunderground v.1.15,2013-01-25 01:20:00,
2013-01-24 20:25:00,11.0,5.5,30.52,NNE,29,0.0,0.0,78,0.00,,,0.00,Wunderground v.1.15,2013-01-25 01:25:00,
2013-01-24 20:30:00,10.8,5.6,30.52,NNE,29,0.0,0.0,79,0.00,,,0.00,Wunderground v.1.15,2013-01-25 01:30:00,
2013-01-24 20:35:00,10.6,5.4,30.52,NNE,29,0.0,0.0,79,0.00,,,0.00,Wunderground v.1.15,2013-01-25 01:35:00,
2013-01-24 20:40:00,10.3,5.1,30.52,NNE,29,0.0,0.0,79,0.00,,,0.00,Wunderground v.1.15,2013-01-25 01:40:00,
2013-01-24 20:45:00,10.1,4.9,30.52,NNE,29,0.0,0.0,79,0.00,,,0.00,Wunderground v.1.15,2013-01-25 01:45:00,
2013-01-24 20:50:00,9.9,4.7,30.51,NNE,29,0.0,0.0,79,0.00,,,0.00,Wunderground v.1.15,2013-01-25 01:50:00,
2013-01-24 21:00:00,10.1,5.7,30.50,NNE,29,0.0,1.0,82,0.00,,,0.00,Wunderground v.1.15,2013-01-25 02:00:00,
2013-01-24 21:10:00,10.4,6.0,30.51,NNE,29,1.0,1.0,82,0.00,,,0.00,Wunderground v.1.15,2013-01-25 02:10:00,
2013-01-24 21:15:00,10.3,5.6,30.51,NNE,29,0.0,1.0,81,0.00,,,0.00,Wunderground v.1.15,2013-01-25 02:15:00,
2013-01-24 21:20:00,10.3,5.6,30.50,NNE,29,0.0,0.0,81,0.00,,,0.00,Wunderground v.1.15,2013-01-25 02:20:00,
2013-01-24 21:25:00,10.3,5.9,30.50,NNE,29,0.0,0.0,82,0.00,,,0.00,Wunderground v.1.15,2013-01-25 02:25:00,
2013-01-24 21:35:00,10.3,5.6,30.51,NNE,29,0.0,0.0,81,0.00,,,0.00,Wunderground v.1.15,2013-01-25 02:35:00,
2013-01-24 21:45:00,10.3,5.9,30.50,NNE,29,0.0,0.0,82,0.00,,,0.00,Wunderground v.1.15,2013-01-25 02:45:00,
2013-01-24 21:50:00,10.3,5.9,30.50,NNE,29,0.0,1.0,82,0.00,,,0.00,Wunderground v.1.15,2013-01-25 02:50:00,
2013-01-24 21:55:00,10.4,6.0,30.50,NNE,29,1.0,1.0,82,0.00,,,0.00,Wunderground v.1.15,2013-01-25 02:55:00,
2013-01-24 22:00:00,10.4,6.0,30.51,NNE,29,1.0,1.0,82,0.00,,,0.00,Wunderground v.1.15,2013-01-25 03:00:00,
2013-01-24 22:10:00,10.6,6.2,30.51,NNE,29,0.0,0.0,82,0.00,,,0.00,Wunderground v.1.15,2013-01-25 03:10:00,
2013-01-24 22:15:00,10.6,5.9,30.51,NNE,29,0.0,0.0,81,0.00,,,0.00,Wunderground v.1.15,2013-01-25 03:15:00,
2013-01-24 22:20:00,10.6,6.2,30.51,NNE,29,0.0,0.0,82,0.00,,,0.00,Wunderground v.1.15,2013-01-25 03:20:00,
2013-01-24 22:25:00,10.6,6.2,30.51,NNE,29,0.0,0.0,82,0.00,,,0.00,Wunderground v.1.15,2013-01-25 03:25:00,
2013-01-24 22:30:00,10.6,6.2,30.51,NNE,29,0.0,0.0,82,0.00,,,0.00,Wunderground v.1.15,2013-01-25 03:30:00,
2013-01-24 22:35:00,10.6,6.2,30.51,NNE,29,0.0,1.0,82,0.00,,,0.00,Wunderground v.1.15,2013-01-25 03:35:00,
2013-01-24 22:45:00,11.2,6.8,30.50,NNE,29,1.0,1.0,82,0.00,,,0.00,Wunderground v.1.15,2013-01-25 03:45:00,
2013-01-24 22:50:00,11.3,6.9,30.50,NNE,29,0.0,0.0,82,0.00,,,0.00,Wunderground v.1.15,2013-01-25 03:50:00,
2013-01-24 22:55:00,11.3,6.9,30.50,NNE,29,0.0,0.0,82,0.00,,,0.00,Wunderground v.1.15,2013-01-25 03:55:00,
2013-01-24 23:00:00,11.2,6.8,30.50,NNE,29,0.0,0.0,82,0.00,,,0.00,Wunderground v.1.15,2013-01-25 04:00:00,
2013-01-24 23:10:00,11.0,6.6,30.50,NNE,29,0.0,0.0,82,0.00,,,0.00,Wunderground v.1.15,2013-01-25 04:10:00,
2013-01-24 23:20:00,11.2,7.0,30.50,NNE,29,0.0,1.0,83,0.00,,,0.00,Wunderground v.1.15,2013-01-25 04:20:00,
2013-01-24 23:30:00,11.6,7.2,30.49,NNE,29,1.0,1.0,82,0.00,,,0.00,Wunderground v.1.15,2013-01-25 04:30:00,
2013-01-24 23:35:00,11.8,7.4,30.49,NNE,29,1.0,1.0,82,0.00,,,0.00,Wunderground v.1.15,2013-01-25 04:35:00,
2013-01-24 23:40:00,11.9,7.2,30.49,NNE,29,1.0,1.0,81,0.00,,,0.00,Wunderground v.1.15,2013-01-25 04:40:00,
2013-01-24 23:45:00,11.9,7.2,30.48,NNE,29,0.0,1.0,81,0.00,,,0.00,Wunderground v.1.15,2013-01-25 04:45:00,
2013-01-24 23:50:00,12.1,7.4,30.48,NNE,29,0.0,0.0,81,0.00,,,0.00,Wunderground v.1.15,2013-01-25 04:50:00,
2013-01-24 23:55:00,12.2,7.2,30.48,NNE,29,0.0,0.0,80,0.00,,,0.00,Wunderground v.1.15,2013-01-25 04:55:00,